STARS-C

Last updated on March 3, 2018, 12:15 a.m. UTC

1 41895U 98067KR  18061.52581171  .12025536  12682-4  40347-3 0  9991
2 41895  51.6547 142.6546 0011212 346.6197  16.6343 16.43666377 68734

Satellite is not in orbit.